Regional Weather Roundup
Issued by NWS Columbia, SC

Home | Current Version | Previous Version | Text Only | Print | Product List | Glossary On
Versions: 1 2 3 4 5 6 7 8 9 10 11 12 13 14 15 16 17 18 19 20 21 22 23 24 25 26 27 28 29 30 31 32 33 34 35 36 37 38 39 40 41 42 43 44 45 46 47 48 49 50
000
ASUS42 KCAE 211310
RWRCAE
REGIONAL WEATHER ROUNDUP
NATIONAL WEATHER SERVICE COLUMBIA SC
800 AM EST SUN DEC 21 2014

NOTE: "FAIR" INDICATES FEW OR NO CLOUDS BELOW 12,000 FEET WITH NO
SIGNIFICANT WEATHER AND/OR OBSTRUCTIONS TO VISIBILITY.

NOT ALL STATIONS ARE QUALITY CONTROLLED BY THE NATIONAL
WEATHER SERVICE. USE DATA WITH CAUTION...ESPECIALLY
DEWPOINT OBSERVATIONS.

SCZ001>056-GAZ040-063>065-077-211400-
...UPSTATE SOUTH CAROLINA...

CITY           SKY/WX    TMP DP  RH WIND       PRES   REMARKS
ANDERSON       CLOUDY    43  39  86 E6        30.24S
LIBERTY        CLOUDY    41  40  93 MISG      30.24R FOG
SPARTANBURG    CLOUDY    43  41  93 CALM      30.26R
CLEMSON        CLOUDY    44  39  82 E5        30.24F HAZE
GREENVILLE     CLOUDY    42  38  85 E3        30.25R FOG
GREENWOOD      CLOUDY    42  39  89 NE6       30.26R FOG
GREER          CLOUDY    42  40  92 CALM      30.24R FOG
ROCK HILL      CLOUDY    42  36  79 CALM      30.27R
CHESTER        CLOUDY    43  37  81 CALM      30.27S


...CENTRAL SOUTH CAROLINA...

CITY           SKY/WX    TMP DP  RH WIND       PRES   REMARKS
COLUMBIA APT   CLOUDY    44  38  79 NE6       30.26R
COLUMBIA OWENS CLOUDY    44  37  76 CALM      30.28R
DARLINGTON     CLOUDY    37  34  87 N8        30.29R WCI  31
FLORENCE       CLOUDY    40  36  86 NE8       30.26S WCI  34
MCENTIRE ANGB  CLOUDY    41  37  85 NE5       30.27R
ORANGEBURG     CLOUDY    43  37  79 N9        30.24S
SUMTER SHAW    CLOUDY    41  36  81 N7        30.26R
NEWBERRY       CLOUDY    39 N/A N/A NE6       30.29R HAZE    WCI  35
AIKEN          CLOUDY    43  43 100 NE5       30.26F
BARNWELL         N/A     45  41  87 NE8       30.24S
CAMDEN         PTSUNNY   37  34  87 N6        30.29R FOG     WCI  33
LANCASTER      RAIN      37  37 100 E3        30.28R
WINNSBORO      PTSUNNY   37  37 100 NE6       30.26R WCI  33


...EASTERN AND COASTAL SOUTH CAROLINA...

CITY           SKY/WX    TMP DP  RH WIND       PRES   REMARKS
MYRTLE BEACH   MOCLDY    43  36  75 N12       30.27S
N MYRTLE BCH   MOCLDY    41  34  76 N8        30.25R
CONWAY         CLOUDY    41  36  81 N5        30.26F HAZE
MARION         CLOUDY    41  34  75 NE8       30.27S
HARTSVILLE     CLOUDY    39  37  93 N5        30.27F
FLORENCE       CLOUDY    40  36  86 NE8       30.26S WCI  34
DARLINGTON     CLOUDY    37  34  87 N8        30.29R WCI  31
CHARLESTON APT LGT RAIN  44  42  93 NE8       30.23S
MOUNT PLEASANT CLOUDY    45  45 100 N6        30.23S FOG
WALTERBORO     LGT RAIN  45 N/A N/A N5        30.24R
BEAUFORT       CLOUDY    47  45  93 NE12      30.21R


...EASTERN GEORGIA...

CITY           SKY/WX    TMP DP  RH WIND       PRES   REMARKS
AUGUSTA BUSH F CLOUDY    46  41  82 NE6       30.24S
AUGUSTA DANIEL CLOUDY    47  43  86 N7        30.23F
THOMSON        CLOUDY    47  46  99 NE3       30.27F
WASHINGTON     CLOUDY    45 N/A N/A NE3       30.23S FOG
CLAXTON        CLOUDY    48  48 100 NE3       30.20R FOG
SYLVANIA       CLOUDY    46  46 100 E6        30.21F FOG
STATESBORO     CLOUDY    46  46 100 NE3       30.20F FOG
SAVANNAH       CLOUDY    49  46  90 N8        30.20S


...SOUTHERN NORTH CAROLINA...

CITY           SKY/WX    TMP DP  RH WIND       PRES   REMARKS
CHARLOTTE      CLOUDY    43  34  70 CALM      30.27R
MONROE         CLOUDY    40  34  79 NE3       30.27R
WADESBORO      CLOUDY    38  37  94 CALM      30.29S FOG
ROCKINGHAM     CLOUDY    38  36  91 NE6       30.28R FOG     WCI  34
RUTHERFORDTON  CLOUDY    40  40  99 CALM      30.26S FOG
ASHEVILLE      CLOUDY    39  37  92 CALM      30.22R

$$


USA.gov is the U.S. government's official web portal to all federal, state and local government web resources and services.